Regional Weather Roundup
Issued by NWS

Home | Current Version | Previous Version | Text Only | Print | Product List | Glossary Off
Versions: 1 2 3 4 5 6 7 8 9 10 11 12 13 14 15 16 17 18 19 20 21 22 23 24 25 26 27 28 29 30 31 32 33 34 35 36 37 38 39 40 41 42 43 44 45 46 47 48 49 50

000
ASUS43 KIND 212209
RWRIN

WEATHER ROUNDUP FOR INDIANA
NATIONAL WEATHER SERVICE INDIANAPOLIS IN
600 PM EDT SAT APR 21 2018

NOTE: "FAIR" INDICATES FEW OR NO CLOUDS BELOW 12,000 FEET WITH NO
SIGNIFICANT WEATHER AND/OR OBSTRUCTIONS TO VISIBILITY.

* - STATION DOES NOT REPORT WEATHER SUCH AS PRECIPITATION OR FOG.

+ - STATION NOT QUALITY CONTROLLED BY THE NATIONAL WEATHER SERVICE.
    USE DATA WITH CAUTION...ESPECIALLY DEWPOINT AND RELATIVE
    HUMIDITY OBSERVATIONS.

INZ001>003-010>013-019-020-212300-
NORTHWEST INDIANA

CITY           SKY/WX    TMP DP  RH WIND       PRES   REMARKS
GARY /AIRPORT/ CLOUDY    46  30  53 CALM      30.40S
KNOX *+        CLOUDY    54  27  35 NE8       30.38S
LA PORTE +     PTSUNNY   54  26  34 CALM      30.38F
MICHIGAN CITY+ CLOUDY    48  27  43 N5        30.39F
MONTICELLO +   CLOUDY    57  22  25 NE9       30.35S
RENSSELAER +   FAIR      55  10  16 E12       30.36F
VALPARAISO     FAIR      56  29  35 NE6       30.38F

$$

LMZ046-743>745-212300-
SOUTHERN LAKE MICHIGAN

STATION/POSITION TIME  TEMP    WIND        PRES    WAVE
                       AIR SEA DIR/SP/G            HT
                 (UTC) (F)     (DEG/KT/KT) (MB)    (FT)
BURNS HARBOR     2140   43      50/  6/  7 1029.5F
MICHIGAN CITY    2140   42      30/  5/  6   N/A

$$

INZ004-005-014>016-021>024-212300-
NORTH CENTRAL INDIANA

CITY           SKY/WX    TMP DP  RH WIND       PRES   REMARKS
GOSHEN         PTSUNNY   56  26  31 CALM      30.38F
LOGANSPORT +   CLOUDY    55  25  30 E7        30.37R
PERU/GRISSOM   CLOUDY    57  19  23 NE9       30.36F
ROCHESTER +    FAIR      57  23  26 NE7       30.38S
SOUTH BEND     CLOUDY    55  23  28 CALM      30.39F
WARSAW +       PTSUNNY   54  27  35 E7        30.37F

$$

INZ006>009-017-018-025>027-212300-
NORTHEAST INDIANA

CITY           SKY/WX    TMP DP  RH WIND       PRES   REMARKS
ANGOLA *+      FAIR      55  25  30 SW5       30.38F
AUBURN +       CLOUDY    54  27  35 CALM      30.40S
FORT WAYNE     CLOUDY    55  24  30 E8        30.40S
HUNTINGTON +   CLOUDY    54  22  29 E6        30.37F

$$

INZ028-029-035-036-043>045-051>053-212300-
WEST CENTRAL INDIANA

CITY           SKY/WX    TMP DP  RH WIND       PRES   REMARKS
CRAWFORDSVL +  FAIR      57  28  32 E12       30.31F
GREENCASTLE +  FAIR      59  27  29 E6        30.31S
LAFAYETTE      FAIR      57  26  30 NE16      30.32F
TERRE HAUTE    FAIR      60  32  34 E13       30.28F

$$

INZ030>032-037>040-046>048-054>057-064-065-212300-
CENTRAL INDIANA

CITY           SKY/WX    TMP DP  RH WIND       PRES   REMARKS
COLUMBUS       CLOUDY    59 N/A N/A NE13      30.31F
FRANKFORT +    PTSUNNY   62  18  18 E13       30.35R
GREENWOOD *+   FAIR      59  24  26 E12       30.31F
INDIANAPOLIS   PTSUNNY   60  20  21 E9        30.31F
-EAGLE CREEK   FAIR      60  22  23 E10       30.31F
KOKOMO +       CLOUDY    56  26  31 NE14      30.36F
MARION +       CLOUDY    55  24  29 E13       30.36F
MT COMFORT *+  FAIR      59  32  36 E10       30.32F
SHELBYVILLE    FAIR      61  22  22 E12       30.31F
ZIONSVILLE +   FAIR      58  23  25 E7        30.33S

$$

INZ033-034-041-042-049-050-058-059-212300-
EAST CENTRAL INDIANA

CITY           SKY/WX    TMP DP  RH WIND       PRES   REMARKS
MUNCIE         FAIR      59  21  23 NE13      30.34F
RICHMOND +     FAIR      54  27  35 E8        30.35S

$$

INZ060-061-067>069-081>083-085>088-212300-
SOUTHWEST INDIANA

CITY           SKY/WX    TMP DP  RH WIND       PRES   REMARKS
EVANSVILLE     FAIR      69  30  23 E10G20    30.20F
HUNTINGBURG +  FAIR      67  33  28 NE10      30.22F
WASHINGTON +   FAIR      65  25  21 E14       30.23F

$$

INZ062-063-066-070>080-084-089>092-212300-
SOUTH CENTRAL AND SOUTHEAST INDIANA

CITY           SKY/WX    TMP DP  RH WIND       PRES   REMARKS
BATESVILLE +   SUNNY     57  23  26 MISG      30.32S
BEDFORD +      FAIR      64  23  20 NE6       30.28S
BLOOMINGTON    FAIR      61  27  27 NE14      30.28S
FRENCH LICK *+ FAIR      64   9  11 E9        30.25S
MADISON *+     FAIR      64  23  20 N8        30.30S
NORTH VERNON + FAIR      57  25  28 NE13      30.31S
SEYMOUR +      FAIR      63  32  31 NE14      30.28S

$$





USA.gov is the U.S. government's official web portal to all federal, state and local government web resources and services.